Regional Weather Roundup
Issued by NWS

Home | Current Version | Previous Version | Text Only | Print | Product List | Glossary Off
Versions: 1 2 3 4 5 6 7 8 9 10 11 12 13 14 15 16 17 18 19 20 21 22 23 24 25 26 27 28 29 30 31 32 33 34 35 36 37 38 39 40 41 42 43 44 45 46 47 48 49 50

000
ASUS43 KIND 150659
RWRIN

WEATHER ROUNDUP FOR INDIANA
NATIONAL WEATHER SERVICE INDIANAPOLIS IN
300 AM EDT TUE APR 15 2014

NOTE: "FAIR" INDICATES FEW OR NO CLOUDS BELOW 12,000 FEET WITH NO
SIGNIFICANT WEATHER AND/OR OBSTRUCTIONS TO VISIBILITY.

* - STATION DOES NOT REPORT WEATHER SUCH AS PRECIPITATION OR FOG.

+ - STATION NOT QUALITY CONTROLLED BY THE NATIONAL WEATHER SERVICE.
    USE DATA WITH CAUTION...ESPECIALLY DEWPOINT AND RELATIVE
    HUMIDITY OBSERVATIONS.

INZ001>003-010>013-019-020-150800-
NORTHWEST INDIANA

CITY           SKY/WX    TMP DP  RH WIND       PRES   REMARKS
GARY /AIRPORT/ LGT SNOW  31  29  90 N14G20    29.98S WCI  21
MONTICELLO +   FLURRIES  31  28  87 N9        29.94S WCI  23
VALPARAISO     LGT SNOW  29  25  85 N10       29.95S FOG     WCI  20

$$

LMZ046-743>745-150800-
SOUTHERN LAKE MICHIGAN

STATION/POSITION TIME  TEMP WIND        PRES
                       AIR  DIR/SP/G
                 (UTC) (F)  (DEG/KT/KT) (MB)
MICHIGAN CITY    0600   31  360/ 22/ 26   N/A

$$

INZ004-005-014>016-021>024-150800-
NORTH CENTRAL INDIANA

CITY           SKY/WX    TMP DP  RH WIND       PRES   REMARKS
GOSHEN         CLOUDY    29  23  78 NW15G25   29.90R WCI  18
SOUTH BEND     CLOUDY    29  21  72 N20G28    29.93R WCI  16

$$

INZ006>009-017-018-025>027-150800-
NORTHEAST INDIANA

CITY           SKY/WX    TMP DP  RH WIND       PRES   REMARKS
ANGOLA *+      MOCLDY    27  25  93 N8        29.85R WCI  18
FORT WAYNE     CLOUDY    30  25  81 NW13      29.86R WCI  20

$$

INZ028-029-035-036-043>045-051>053-150800-
WEST CENTRAL INDIANA

CITY           SKY/WX    TMP DP  RH WIND       PRES   REMARKS
GREENCASTLE +  CLOUDY    32  30  93 NW3       29.94S
LAFAYETTE      LGT SNOW  31  29  92 NW15G21   29.95F FOG     WCI  20
TERRE HAUTE    CLOUDY    34  29  82 NW17      29.97S WCI  23

$$

INZ030>032-037>040-046>048-054>057-064-065-150800-
CENTRAL INDIANA

CITY           SKY/WX    TMP DP  RH WIND       PRES   REMARKS
INDIANAPOLIS   CLOUDY    31  28  89 N16       29.91R WCI  20
-EAGLE CREEK   CLOUDY    32  27  81 N14G22    29.91S WCI  22
KOKOMO *+      CLOUDY    30  25  80 N15       29.91S WCI  19
MT COMFORT *+  CLOUDY    32  32 100 NW13G20   29.91R WCI  22
SHELBYVILLE    CLOUDY    35  32  88 NW15      29.90S WCI  25

$$

INZ033-034-041-042-049-050-058-059-150800-
EAST CENTRAL INDIANA

CITY           SKY/WX    TMP DP  RH WIND       PRES   REMARKS
MUNCIE         CLOUDY    30  27  88 NW15      29.87S WCI  19

$$

INZ060-061-067>069-081>083-085>088-150800-
SOUTHWEST INDIANA

CITY           SKY/WX    TMP DP  RH WIND       PRES   REMARKS
EVANSVILLE     CLOUDY    38  31  76 N16G24    30.00R
HUNTINGBURG *+ CLOUDY    37  30  75 N17G24    29.96S

$$

INZ062-063-066-070>080-084-089>092-150800-
SOUTH CENTRAL AND SOUTHEAST INDIANA

CITY           SKY/WX    TMP DP  RH WIND       PRES   REMARKS
BLOOMINGTON    FLURRIES  34  30  85 NW6       29.93S WCI  29

$$




USA.gov is the U.S. government's official web portal to all federal, state and local government web resources and services.